Location: Gleizolles
(44.4833°N, 6.7667°E)
Time: 20:56:40
(UTC+00:00)

Tiros 1 despin weight - Pass Details

Date: 30 June 2024
Orbit: 576 x 620 km, 48.2° (Epoch: 19 July)

Event Time Altitude Azimuth Distance (km) Brightness Sun altitude
Rises 09:15:07 0° 242° (WSW) 2,861 ? 54.1°
Reaches altitude 10° 09:17:24 10° 242° (WSW) 1,965 ? 54.5°
Maximum altitude 09:21:55 80° 156° (SSE) 630 ? 55.2°
Drops below altitude 10° 09:26:30 10° 69° (ENE) 1,987 ? 55.9°
Sets 09:28:49 0° 69° (ENE) 2,897 ? 56.3°
